Regional Weather Roundup
Issued by NWS

Home | Current Version | Previous Version | Graphics & Text | Print | Product List | Glossary On
Versions: 1 2 3 4 5 6 7 8 9 10 11 12 13 14 15 16 17 18 19 20 21 22 23 24 25 26 27 28 29 30 31 32 33 34 35 36 37 38 39 40 41 42 43 44 45 46 47 48 49 50
000
ASUS43 KDMX 021807
RWRIA

WEATHER ROUNDUP FOR IOWA
NATIONAL WEATHER SERVICE DES MOINES IA
100 PM CDT SAT MAY 02 2015

NOTE: "FAIR" INDICATES FEW OR NO CLOUDS BELOW 12,000 FEET WITH NO
SIGNIFICANT WEATHER AND/OR OBSTRUCTIONS TO VISIBILITY.

* - THESE STATIONS ARE NOT NWS STATIONS...THUS NOT UNDER NWS
QUALITY CONTROL.  THEY ALSO DO NOT REPORT WEATHER SUCH
AS PRECIPITATION OR FOG.

IAZ001>003-012>014-020>022-031>034-043>046-021900-
   NORTHWEST IOWA

CITY           SKY/WX    TMP DP  RH WIND       PRES   REMARKS
CARROLL *      SUNNY     66  55  68 SW25G32   29.91R
CHEROKEE *     SUNNY     74  54  50 SW15G22   29.87F
DENISON *      SUNNY     63  59  88 S22G32    29.89S
LE MARS *      SUNNY     75  54  46 S24G32    29.86F
ORANGE CITY *  SUNNY     73  54  49 S18G28    29.87F
SHELDON *      SUNNY     75  54  46 SW17      29.85F
SIOUX CITY     MOSUNNY   75  53  46 S21G28    29.87F
6HR MIN TEMP:  49; 6HR MAX TEMP:  76;

SPENCER        SUNNY     76  52  43 SW14G24   29.87F
6HR MIN TEMP:  44; 6HR MAX TEMP:  77;

STORM LAKE *   SUNNY     73  54  49 S17G25    29.90F
$$

IAZ055>058-069>071-079>083-090>094-021900-
   SOUTHWEST IOWA

CITY           SKY/WX    TMP DP  RH WIND       PRES   REMARKS
ATLANTIC *     CLOUDY    59  55  88 S15G21    29.97R
AUDUBON *      HVY RAIN  57  54  88 S21G26    29.95S
CLARINDA *     CLOUDY    57  54  88 SE9       30.01F
COUNCIL BLFS * SUNNY     63  59  88 SE18G28   29.93F
CRESTON *      PTSUNNY   57  57 100 SW22G29   30.00F
HARLAN  *      CLOUDY    61  61 100 S10       29.98F
LAMONI         LGT RAIN  57  53  86 SW10      30.04R
6HR MIN TEMP:  55; 6HR MAX TEMP:  59; 6HR PCP:  0.09;

RED OAK *      CLOUDY    61  55  82 SE14G21   29.97F
SHENANDOAH *   PTSUNNY   61  57  88 SE16      29.97F
$$

IAZ047>049-059>061-072>074-084-021900-
   CENTRAL IOWA

CITY           SKY/WX    TMP DP  RH WIND       PRES   REMARKS
AMES           CLOUDY    68  51  54 SW18G26   29.95S
6HR MIN TEMP:  50; 6HR MAX TEMP:  70;

ANKENY *       SUNNY     66  54  63 S13G22    29.97S
CHARITON *     MOSUNNY   61  52  72 SW12G18   30.01F
DES MOINES     CLOUDY    65  51  60 SW18      29.97F
6HR MIN TEMP:  56; 6HR MAX TEMP:  68;

GRINNELL*      CLOUDY    66  48  52 SW21      30.00S
KNOXVILLE *    CLOUDY    63  48  59 SW13      29.99F
MARSHALLTOWN   CLOUDY    70  49  47 S20       29.95F
6HR MIN TEMP:  53; 6HR MAX TEMP:  72;

PELLA *        CLOUDY    65  52  62 SW10G24   30.01F
PERRY *        PTSUNNY   63  54  72 S17       29.91F
$$

IAZ004>006-015-016-023>025-035-036-021900-
   NORTH CENTRAL IOWA

CITY           SKY/WX    TMP DP  RH WIND       PRES   REMARKS
ALGONA *       SUNNY     73  52  46 S13G18    29.89F
CLARION *      SUNNY     75  52  43 SW13G26   29.91F
ESTHERVILLE    SUNNY     74  47  38 SW15G21   29.87F
6HR MIN TEMP:  43; 6HR MAX TEMP:  74;

FORT DODGE *   MOSUNNY   70  54  56 SW15      29.93F
MASON CITY     MOSUNNY   75  50  41 SW10      29.91F
6HR MIN TEMP:  44; 6HR MAX TEMP:  75;

FOREST CITY *  SUNNY     72  48  43 S14       29.89F
IOWA FALLS *     N/A     72  50  46 S17G24    29.94F
$$

IAZ007>011-017>019-026>030-037>042-050>054-066-021900-
   NORTHEAST IOWA

CITY           SKY/WX    TMP DP  RH WIND       PRES   REMARKS
CEDAR RAPIDS   PTSUNNY   73  37  27 SW17      30.01S
CHARLES CITY * SUNNY     73  46  38 SW16G24   29.93F
CLINTON *        N/A     73  41  31 SW16G22   30.03F
DECORAH *      SUNNY     73  39  29 SW12G24   29.94F
DUBUQUE        MOSUNNY   73  42  32 SW17G24   30.00F
6HR MIN TEMP:  51; 6HR MAX TEMP:  73;

MONTICELLO *   MOSUNNY   73  39  29 SW18G28   30.00S
OELWEIN *      SUNNY     75  41  29 S24G36    29.96F
WATERLOO       MOSUNNY   75  49  39 S18G26    29.93F
6HR MIN TEMP:  51; 6HR MAX TEMP:  76;

$$

IAZ064-065-067-068-078-021900-
   EAST CENTRAL IOWA

CITY           SKY/WX    TMP DP  RH WIND       PRES   REMARKS
DAVENPORT      PTSUNNY   74  36  25 SW12      30.02F
6HR MIN TEMP:  50; 6HR MAX TEMP:  75;

IOWA CITY      CLOUDY    73  40  30 S15       30.02F
6HR MIN TEMP:  49; 6HR MAX TEMP:  73;

MT. PLEASANT * PTSUNNY   73  36  25 SW15      30.02F
MUSCATINE *    PTSUNNY   75  39  27 S14G21    30.01F
QUAD CITIES    PTSUNNY   77  39  25 SW13      30.00F
6HR MIN TEMP:  45; 6HR MAX TEMP:  77;

$$

IAZ062-063-075>077-085>089-095>099-021900-
   SOUTHEAST IOWA

CITY           SKY/WX    TMP DP  RH WIND       PRES   REMARKS
BURLINGTON     MOSUNNY   74  39  28 S14G23    30.02F
6HR MIN TEMP:  52; 6HR MAX TEMP:  74;

FAIRFIELD *    PTSUNNY   70  39  32 S14       30.03S
FORT MADISON * MOSUNNY   73  39  29 SW8       30.04F
KEOKUK *       MOSUNNY   72  43  35 SW8       30.03F
OSKALOOSA *      N/A     69  47  44 SW15G25   30.02S
CENTERVILLE *  MOSUNNY   63  54  72 S12       30.06F
OTTUMWA        CLOUDY    70  48  45 SW13G23   30.02S
6HR MIN TEMP:  57; 6HR MAX TEMP:  70;

WASHINGTON *   CLOUDY    73  41  31 S14       30.02F
$$

ABBREVIATIONS USED IN REMARKS
   TC - TEMPERATURES IN CELSIUS
  WCI - WIND CHILL INDEX
   HX - HEAT INDEX
  VSB - VISIBILITY
$$



USA.gov is the U.S. government's official web portal to all federal, state and local government web resources and services.